Live Position
Loading 3D Globe...
About Beidou DW 59
Group: 3 satellites
Description loading...
Upcoming Passes
Passes for default location (London). Set your location on the main map for personalized predictions.
Altitude History
Loading altitude history...
No altitude history available
Two-Line Element Set
1 61186U 24168B 26121.28497288 -.00000079 00000-0 00000+0 0 9999
2 61186 54.5160 303.8712 0003272 318.5756 93.9388 1.86230330 10915
Epoch: May 1, 2026 •
Age: 22 hours
Current Status
Altitude 21532.8 km
Velocity 3.78 km/s
Sub-Earth Point -40.14°S,
26.12°W
Launch Date Sep 19, 2024
Age 1.6 years
Type navigation
Technical Details
Classification Payload
Mass 1014.00 kg
Dry Mass 850.00 kg
Total Mass 1014.00 kg
Length 2.20 m
Diameter 1.70 m
Span 10.00 m
Shape Box + 2 Pan
Manufacturer CAST
Bus Type BD-3M
Phase Status In Orbit
Owner/State CNSA/CN
Most Searched
Loading...